Regional Weather Roundup
Issued by NWS

Home | Current Version | Previous Version | Text Only | Print | Product List | Glossary On
Versions: 1 2 3 4 5 6 7 8 9 10 11 12 13 14 15 16 17 18 19 20 21 22 23 24 25 26 27 28 29 30 31 32 33 34 35 36 37 38 39 40 41 42 43 44 45 46 47 48 49 50
000
ASUS43 KDTX 012010
RWRMI
MICHIGAN HOURLY REGIONAL WEATHER ROUNDUP
NATIONAL WEATHER SERVICE DETROIT/PONTIAC MI
400 PM EDT MON SEP 01 2014

NOTE: "FAIR" INDICATES FEW OR NO CLOUDS BELOW 12,000 FEET WITH NO
SIGNIFICANT WEATHER AND/OR OBSTRUCTION TO VISIBILITY.

MIZ047>049-052>055-059>063-066>070-074>076-081>083-012100-
SOUTHEAST LOWER MICHIGAN

CITY           SKY/WX    TMP DP  RH WIND       PRES   REMARKS
ADRIAN         CLOUDY    84  68  58 SW17G28   29.80F
ALMA           CLOUDY    73  71  93 SW9       29.73F
ANN ARBOR      PTSUNNY   82  70  65 SW16      29.78F
BAD AXE        CLOUDY    82  71  69 SW18G28   29.74F
DETROIT CITY   PTSUNNY   84  70  62 S17G24    29.79S
DETROIT        CLOUDY    84  69  60 S16       29.80S
FLINT          CLOUDY    84  70  62 S14G22    29.75F
GROSSE ILE     PTSUNNY   81  73  78 S14       29.78F
HILLSDALE      PTSUNNY   83  69  61 SW10G22   29.79F
HOWELL         CLOUDY    80  69  68 S9G20     29.76F

CITY           SKY/WX    TMP DP  RH WIND       PRES   REMARKS
JACKSON        PTSUNNY   82  68  62 SW16G29   29.76F
LAMBERTVILLE   PTSUNNY   86  68  54 SW14G20   29.81F
LANSING        HVY RAIN  72  69  90 SW20G36   29.78R VSB 1
LAPEER         NOT AVBL
MASON          RAIN      79  69  70 SW8       29.75F
MONROE         PTSUNNY   84  68  58 SW17      29.78F
MT. CLEMENS    PTSUNNY   80  70  70 S15G22    29.78F
PONTIAC        CLOUDY    82  67  60 S16G26    29.77F
PORT HOPE        N/A     81  67  62 VRB6G20   29.71R
PORT HURON     PTSUNNY   79  72  78 S20G26    29.79S
TRI CITIES     TSTM      70  67  90 W14G20    29.76R VSB 3/4
YPSILANTI      CLOUDY    87  69  54 S16G26    29.79F HX  91
$$
MIZ043>046-050>051-056>058-064>065-071>073-077>080-012100-
SOUTHWEST LOWER MICHIGAN

CITY           SKY/WX    TMP DP  RH WIND       PRES   REMARKS
BATTLE CREEK   TSTM      72  68  87 W16G36    29.78S VSB 1/2
BENTON HARBOR  MOSUNNY   80  70  71 SW16G25   29.76F
BIG RAPIDS     PTSUNNY   78  70  75 W16       29.71F
COLDWATER      RAIN      77  72  84 SW13G22   29.79S
HOLLAND        MOSUNNY   81  71  71 SW17G28   29.75F
GRAND RAPIDS   PTSUNNY   79  75  87 SW17G28   29.74F
KALAMAZOO      PTSUNNY   75  70  84 SW9       29.78F
MARSHALL       LGT RAIN  79  71  78 S9G16     29.75F
MUSKEGON       PTSUNNY   78  70  76 SW16G23   29.73F
$$
MIZ016>042-012100-
NORTHERN LOWER MICHIGAN

CITY           SKY/WX    TMP DP  RH WIND       PRES   REMARKS
ALPENA         HVY RAIN  69  68  96 W20G31    29.67R VSB 1/2
BEAVER ISLAND  CLOUDY    69  66  90 SW9       29.61F
BELLAIRE       CLOUDY    73  66  80 S5        29.64F
CADILLAC       MOSUNNY   74  67  77 SW12      29.69F
CHARLEVOIX     CLOUDY    73  69  86 SW7       29.65F
FRANKFORT      PTCLDY    74  64  72 SW8       29.66S
GAYLORD        CLOUDY    71  65  81 SW10      29.68F
GRAYLING       CLOUDY    74  68  81 W7        29.69F
HARBOR SPRINGS CLOUDY    71  67  85 SW7       29.64F
HOUGHTON LAKE  CLOUDY    71  66  84 W7        29.71F
MANISTEE       MOSUNNY   75  64  69 SW9       29.68F
OSCODA         LGT RAIN  77  69  76 S17G26    29.68S
PELLSTON       CLOUDY    72  67  84 SW10      29.63F
TRAVERSE CITY  PTSUNNY   75  65  70 SW8       29.64F
$$
MIZ007>008-015-012100-
EASTERN UPPER MICHIGAN

CITY           SKY/WX    TMP DP  RH WIND       PRES   REMARKS
KINROSS        CLOUDY    68  68 100 S3        29.61F
MACKINAC ISLAN CLOUDY    65  65  99 S8        29.61F
NEWBERRY       CLOUDY    68  66  93 SW9       29.58F
S. S. MARIE    LGT RAIN  68  65  90 SE5       29.61F FOG
$$
MIZ004>006-011>014-085-012100-
CENTRAL UPPER MICHIGAN

CITY           SKY/WX    TMP DP  RH WIND       PRES   REMARKS
MANISTIQUE     CLOUDY    68  65  89 SW7       29.60R
ESCANABA       CLOUDY    73  63  68 SW14G23   29.61R
MENOMINEE      CLOUDY    72  64  78 W7        29.62F
SAWYER-GWINN   PTSUNNY   70  57  64 W17G24    29.61S
$$
MIZ001>003-009>011-084-012100-
WESTERN UPPER MICHIGAN

CITY           SKY/WX    TMP DP  RH WIND       PRES   REMARKS
IRON MOUNTAIN  LGT RAIN  67  63  87 SW9G20    29.62R FOG
HOUGHTON       CLOUDY    64  58  80 W21       29.59R
COPPER HARBOR    N/A     67  61  81 NW8G18    29.56R
$$

ABBREVIATIONS USED IN REMARKS
   TC - TEMPERATURE IN CELSIUS
  WCI - WIND CHILL INDEX
   HX - HEAT INDEX
  VSB - VISIBILITY




USA.gov is the U.S. government's official web portal to all federal, state and local government web resources and services.